Flag for Greece Weather past 2 weeks in Kalamata, Greece

Now
48 °F

Clear.


Feels Like: 46 °F
Forecast: 56 / 71 °F
Wind: 6 mph from North

Location: Kalamata Airport

Current Time: Oct 21, 2014 at 7:07:49 AM

Latest Report: Oct 21, 2014 at 6:20 AM


Visibility: 10 mi

Pressure: 30.01 "Hg

Humidity: 76%

Dew point: 41 °F

Location of KalamataLocation

Historic Weather in Kalamata — Graph

°F

Kalamata temperature yesterday

Maximum temperature yesterday: 77 °F (at 1:20 PM)
Minimum temperature yesterday: 52 °F (at 6:20 AM)
Average temperature yesterday: 64 °F

Past Weeks' High & Low Weather Summary

 TemperatureHumidityPressure
High86 °F (Oct 16, 12:50 PM)94% (Oct 7, 1:50 AM)30.21 "Hg (Oct 7, 1:50 AM)
Low48 °F (Oct 21, 3:50 AM)22% (Oct 20, 1:20 PM)29.95 "Hg (Oct 14, 3:20 PM)
Average69 °F72%30.06 "Hg
* Reported Oct 6 4:50 AM — Oct 21 4:50 AM, Kalamata, Weather by CustomWeather, © 2014

Note: Actual official high and low records may vary slightly from our data, if they occured in-between our weather recording intervals... More about our weather records

Advertising

Kalamata weather history for previous 24 hours

 ConditionsComfort  
Time TempWeatherWind HumidityBarometerVisibility
4:50 AM
Oct 21
48 °FClear.5 mph76%30.04 "Hg10 mi
3:50 AM48 °FClear.No wind82%30.04 "Hg10 mi
2:50 AM50 °FClear.No wind76%30.04 "Hg10 mi
1:50 AM50 °FClear.No wind82%30.04 "Hg10 mi
12:50 AM52 °FClear.No wind77%30.07 "Hg10 mi
11:50 PM
Oct 20
54 °FClear.No wind77%30.07 "Hg10 mi
10:50 PM55 °FClear.6 mph72%30.07 "Hg10 mi
9:50 PM57 °FClear.No wind72%30.07 "Hg10 mi
8:50 PM59 °FClear.5 mph72%30.07 "Hg10 mi
8:20 PM59 °FClear.No wind77%30.07 "Hg10 mi
7:50 PM61 °FClear.No wind72%30.07 "Hg10 mi
7:20 PM64 °FSunny.No wind56%30.07 "Hg10 mi
6:50 PM68 °FSunny.No wind53%30.07 "Hg10 mi
6:20 PM70 °FSunny.No wind53%30.07 "Hg10 mi
5:50 PM72 °FSunny.6 mph50%30.07 "Hg10 mi
5:20 PM73 °FSunny.6 mph44%30.07 "Hg10 mi
4:50 PM73 °FSunny.6 mph47%30.07 "Hg10 mi
4:20 PM73 °FSunny.7 mph47%30.07 "Hg10 mi
3:50 PM73 °FSunny.7 mph47%30.07 "Hg10 mi
3:20 PM73 °FSunny.7 mph41%30.09 "Hg10 mi
2:50 PM75 °FSunny.6 mph31%30.09 "Hg10 mi
2:20 PM75 °FSunny.5 mph31%30.09 "Hg10 mi
1:50 PM75 °FSunny.No wind25%30.12 "Hg10 mi
1:20 PM77 °FSunny.No wind22%30.12 "Hg10 mi
12:50 PM75 °FSunny.No wind25%30.15 "Hg10 mi
12:20 PM75 °FSunny.No wind25%30.15 "Hg10 mi
11:50 AM73 °FSunny.No wind25%30.15 "Hg10 mi
11:20 AM72 °FSunny.No wind27%30.18 "Hg10 mi
10:50 AM70 °FSunny.No wind29%30.18 "Hg10 mi
10:20 AM66 °FSunny.No wind35%30.18 "Hg10 mi
9:50 AM63 °FSunny.5 mph49%30.18 "Hg10 mi
9:20 AM59 °FSunny.No wind55%30.18 "Hg10 mi
8:50 AM54 °FSunny.5 mph63%30.18 "Hg10 mi
8:20 AM52 °FClear.No wind62%30.15 "Hg10 mi
7:50 AM52 °FClear.6 mph62%30.15 "Hg10 mi
Weather by CustomWeather, © 2014

See weather overviewHow to use our weather pages